TimeEDT,TemperatureF,Dew PointF,Humidity,Sea Level PressureIn,VisibilityMPH,Wind Direction,Wind SpeedMPH,Gust SpeedMPH,PrecipitationIn,Events,Conditions,WindDirDegrees,DateUTC
12:51 AM,61.0,57.9,90,29.98,6.0,Calm,Calm,-,N/A,,Clear,0,2014-06-04 04:51:00
1:51 AM,59.0,57.0,93,29.97,6.0,Calm,Calm,-,N/A,,Clear,0,2014-06-04 05:51:00
2:51 AM,59.0,57.0,93,29.96,5.0,Calm,Calm,-,N/A,,Partly Cloudy,0,2014-06-04 06:51:00
3:18 AM,59.0,57.0,93,29.99,6.0,Calm,Calm,-,N/A,,Mostly Cloudy,0,2014-06-04 07:18:00
3:38 AM,59.0,55.9,90,29.99,4.0,Calm,Calm,-,N/A,,Scattered Clouds,0,2014-06-04 07:38:00
3:51 AM,57.9,55.9,93,29.97,5.0,Calm,Calm,-,N/A,,Scattered Clouds,0,2014-06-04 07:51:00
4:03 AM,59.0,57.0,93,30.00,6.0,Calm,Calm,-,N/A,,Mostly Cloudy,0,2014-06-04 08:03:00
4:51 AM,60.8,57.2,88,29.99,6.0,Calm,Calm,-,N/A,,Overcast,0,2014-06-04 08:51:00
5:51 AM,63.0,60.1,90,29.96,8.0,Calm,Calm,-,N/A,,Overcast,0,2014-06-04 09:51:00
6:51 AM,63.0,60.1,90,29.96,7.0,Calm,Calm,-,N/A,,Overcast,0,2014-06-04 10:51:00
7:51 AM,66.0,61.0,84,29.97,9.0,Calm,Calm,-,N/A,,Overcast,0,2014-06-04 11:51:00
8:51 AM,70.0,61.0,73,29.97,10.0,Calm,Calm,-,N/A,,Mostly Cloudy,0,2014-06-04 12:51:00
9:46 AM,73.4,62.6,69,29.98,10.0,Calm,Calm,-,N/A,,Scattered Clouds,0,2014-06-04 13:46:00
9:51 AM,73.0,62.1,68,29.95,10.0,Calm,Calm,-,N/A,,Partly Cloudy,0,2014-06-04 13:51:00
10:51 AM,75.0,61.0,62,29.94,10.0,South,4.6,-,N/A,,Partly Cloudy,190,2014-06-04 14:51:00
11:51 AM,79.0,55.0,44,29.93,10.0,WNW,6.9,-,N/A,,Partly Cloudy,300,2014-06-04 15:51:00
12:51 PM,79.0,53.1,40,29.91,10.0,Variable,5.8,-,N/A,,Partly Cloudy,0,2014-06-04 16:51:00
1:51 PM,79.0,55.0,44,29.89,10.0,West,5.8,-,N/A,,Mostly Cloudy,280,2014-06-04 17:51:00
2:51 PM,79.0,54.0,42,29.87,10.0,WNW,8.1,-,N/A,,Clear,300,2014-06-04 18:51:00
3:51 PM,81.0,53.1,38,29.84,10.0,Variable,3.5,-,N/A,,Partly Cloudy,0,2014-06-04 19:51:00
4:51 PM,64.9,57.9,78,29.90,5.0,West,9.2,19.6,0.01,Rain,Light Rain,280,2014-06-04 20:51:00
5:51 PM,64.4,60.8,88,29.84,10.0,South,4.6,-,N/A,Rain,Light Rain,190,2014-06-04 21:51:00
6:51 PM,64.0,60.1,87,29.79,10.0,SW,5.8,-,0.01,,Mostly Cloudy,220,2014-06-04 22:51:00
7:51 PM,64.0,61.0,90,29.79,5.0,Calm,Calm,-,0.03,Rain,Rain,0,2014-06-04 23:51:00
8:51 PM,63.0,60.1,90,29.76,3.0,SSE,4.6,-,0.16,Rain,Rain,160,2014-06-05 00:51:00
9:14 PM,63.0,60.1,90,29.81,7.0,NW,10.4,-,0.05,Rain,Light Rain,320,2014-06-05 01:14:00
9:51 PM,64.0,61.0,90,29.76,10.0,Calm,Calm,-,0.05,,Overcast,0,2014-06-05 01:51:00
10:10 PM,64.0,61.0,90,29.78,10.0,South,3.5,-,N/A,,Overcast,170,2014-06-05 02:10:00
10:51 PM,64.0,62.1,93,29.73,10.0,SSE,5.8,-,0.00,,Mostly Cloudy,160,2014-06-05 02:51:00
11:51 PM,64.0,62.1,93,29.70,8.0,Calm,Calm,-,N/A,,Partly Cloudy,0,2014-06-05 03:51:00